Time,TemperatureF,DewpointF,PressureIn,WindDirection,WindDirectionDegrees,WindSpeedMPH,WindSpeedGustMPH,Humidity,HourlyPrecipIn,Conditions,Clouds,dailyrainin,SolarRadiationWatts/m^2,SoftwareType,DateUTC
2013-08-19 00:02:00,85.6,22.8,-100.00,South,180,4.0,-999.0,10,-99.99,,,0.00,0.0,meteohub,2013-08-19 04:02:00,
2013-08-19 00:07:00,85.8,23.0,-100.00,SSE,157,0.0,-999.0,10,-99.99,,,0.00,0.0,meteohub,2013-08-19 04:07:00,
2013-08-19 00:12:00,85.6,22.8,-100.00,SSE,167,0.0,-999.0,10,-99.99,,,0.00,0.0,meteohub,2013-08-19 04:12:00,
2013-08-19 00:17:00,85.6,22.8,-100.00,South,178,0.0,-999.0,10,-99.99,,,0.00,0.0,meteohub,2013-08-19 04:17:00,
2013-08-19 00:22:00,85.6,22.8,-100.00,SE,132,2.0,-999.0,10,-99.99,,,0.00,0.0,meteohub,2013-08-19 04:22:00,
2013-08-19 00:27:00,85.8,23.0,-100.00,South,170,4.0,-999.0,10,-99.99,,,0.00,0.0,meteohub,2013-08-19 04:27:00,
2013-08-19 00:32:00,85.6,22.8,-100.00,South,171,2.0,-999.0,10,-99.99,,,0.00,0.0,meteohub,2013-08-19 04:32:00,
2013-08-19 00:37:00,85.6,20.3,-100.00,SSE,161,2.0,-999.0,9,-99.99,,,0.00,0.0,meteohub,2013-08-19 04:37:00,
2013-08-19 00:42:00,85.8,20.5,-100.00,South,169,3.0,-999.0,9,-99.99,,,0.00,0.0,meteohub,2013-08-19 04:42:00,
2013-08-19 00:47:00,85.6,22.8,-100.00,SSE,153,0.0,-999.0,10,-99.99,,,0.00,0.0,meteohub,2013-08-19 04:47:00,
2013-08-19 00:52:00,85.5,20.1,-100.00,SSE,157,0.0,-999.0,9,-99.99,,,0.00,0.0,meteohub,2013-08-19 04:52:00,
2013-08-19 00:57:00,85.6,20.3,-100.00,South,176,3.0,-999.0,9,-99.99,,,0.00,0.0,meteohub,2013-08-19 04:57:00,
2013-08-19 01:02:00,85.6,20.3,-100.00,SW,218,0.0,-999.0,9,-99.99,,,0.00,0.0,meteohub,2013-08-19 05:02:00,
2013-08-19 01:07:00,85.5,20.1,-100.00,SSE,152,5.0,-999.0,9,-99.99,,,0.00,0.0,meteohub,2013-08-19 05:07:00,
2013-08-19 01:17:00,85.3,20.1,-100.00,South,169,1.0,-999.0,9,-99.99,,,0.00,0.0,meteohub,2013-08-19 05:17:00,
2013-08-19 01:22:00,85.5,20.1,-100.00,SSE,161,1.0,-999.0,9,-99.99,,,0.00,0.0,meteohub,2013-08-19 05:22:00,
2013-08-19 01:27:00,85.5,20.1,-100.00,South,177,0.0,-999.0,9,-99.99,,,0.00,0.0,meteohub,2013-08-19 05:27:00,
2013-08-19 01:32:00,85.3,20.1,-100.00,SSE,159,0.0,-999.0,9,-99.99,,,0.00,0.0,meteohub,2013-08-19 05:32:00,
2013-08-19 01:37:00,85.3,20.1,-100.00,SSE,157,0.0,-999.0,9,-99.99,,,0.00,0.0,meteohub,2013-08-19 05:37:00,
2013-08-19 01:42:00,85.5,20.1,-100.00,South,180,0.0,-999.0,9,-99.99,,,0.00,0.0,meteohub,2013-08-19 05:42:00,
2013-08-19 01:47:00,85.5,20.1,-100.00,SSE,161,0.0,-999.0,9,-99.99,,,0.00,0.0,meteohub,2013-08-19 05:47:00,
2013-08-19 01:52:00,85.5,17.4,-100.00,South,172,0.0,-999.0,8,-99.99,,,0.00,0.0,meteohub,2013-08-19 05:52:00,
2013-08-19 01:57:00,85.3,17.2,-100.00,SSE,153,0.0,-999.0,8,-99.99,,,0.00,0.0,meteohub,2013-08-19 05:57:00,
2013-08-19 02:02:00,85.3,17.2,-100.00,SSE,154,0.0,-999.0,8,-99.99,,,0.00,0.0,meteohub,2013-08-19 06:02:00,
2013-08-19 02:07:00,85.3,17.2,-100.00,SSE,158,0.0,-999.0,8,-99.99,,,0.00,0.0,meteohub,2013-08-19 06:07:00,
2013-08-19 02:12:00,85.3,17.2,-100.00,SSE,157,0.0,-999.0,8,-99.99,,,0.00,0.0,meteohub,2013-08-19 06:12:00,
2013-08-19 02:17:00,85.3,17.2,-100.00,SSE,157,0.0,-999.0,8,-99.99,,,0.00,0.0,meteohub,2013-08-19 06:17:00,
2013-08-19 02:22:00,85.3,17.2,-100.00,SSE,156,0.0,-999.0,8,-99.99,,,0.00,0.0,meteohub,2013-08-19 06:22:00,
2013-08-19 02:27:00,85.3,17.2,-100.00,SSE,150,1.0,-999.0,8,-99.99,,,0.00,0.0,meteohub,2013-08-19 06:27:00,
2013-08-19 02:32:00,85.3,17.2,-100.00,SSE,150,0.0,-999.0,8,-99.99,,,0.00,0.0,meteohub,2013-08-19 06:32:00,
2013-08-19 02:37:00,85.1,17.2,-100.00,SSE,153,0.0,-999.0,8,-99.99,,,0.00,0.0,meteohub,2013-08-19 06:37:00,
2013-08-19 02:42:00,85.3,17.2,-100.00,SSE,151,1.0,-999.0,8,-99.99,,,0.00,0.0,meteohub,2013-08-19 06:42:00,
2013-08-19 02:47:00,85.3,20.1,-100.00,SSE,160,2.0,-999.0,9,-99.99,,,0.00,0.0,meteohub,2013-08-19 06:47:00,
2013-08-19 02:52:00,84.9,19.8,-100.00,South,171,3.0,-999.0,9,-99.99,,,0.00,0.0,meteohub,2013-08-19 06:52:00,
2013-08-19 02:57:00,84.9,19.8,-100.00,SSE,155,0.0,-999.0,9,-99.99,,,0.00,0.0,meteohub,2013-08-19 06:57:00,
2013-08-19 03:02:00,84.9,19.8,-100.00,South,173,2.0,-999.0,9,-99.99,,,0.00,0.0,meteohub,2013-08-19 07:02:00,
2013-08-19 03:07:00,84.9,19.8,-100.00,SSE,155,0.0,-999.0,9,-99.99,,,0.00,0.0,meteohub,2013-08-19 07:07:00,
2013-08-19 03:12:00,84.9,19.8,-100.00,SSE,164,0.0,-999.0,9,-99.99,,,0.00,0.0,meteohub,2013-08-19 07:12:00,
2013-08-19 03:17:00,84.7,19.6,-100.00,SSE,157,0.0,-999.0,9,-99.99,,,0.00,0.0,meteohub,2013-08-19 07:17:00,
2013-08-19 03:22:00,84.9,19.8,-100.00,South,178,0.0,-999.0,9,-99.99,,,0.00,0.0,meteohub,2013-08-19 07:22:00,
2013-08-19 03:27:00,84.9,19.8,-100.00,South,179,0.0,-999.0,9,-99.99,,,0.00,0.0,meteohub,2013-08-19 07:27:00,
2013-08-19 03:32:00,84.9,19.8,-100.00,South,183,0.0,-999.0,9,-99.99,,,0.00,0.0,meteohub,2013-08-19 07:32:00,
2013-08-19 03:37:00,84.7,19.6,-100.00,South,175,0.0,-999.0,9,-99.99,,,0.00,0.0,meteohub,2013-08-19 07:37:00,
2013-08-19 03:42:00,84.7,19.6,-100.00,South,175,0.0,-999.0,9,-99.99,,,0.00,0.0,meteohub,2013-08-19 07:42:00,
2013-08-19 03:47:00,84.7,19.6,-100.00,South,171,0.0,-999.0,9,-99.99,,,0.00,0.0,meteohub,2013-08-19 07:47:00,
2013-08-19 03:52:00,84.7,19.6,-100.00,South,187,0.0,-999.0,9,-99.99,,,0.00,0.0,meteohub,2013-08-19 07:52:00,
2013-08-19 03:57:00,84.7,19.6,-100.00,East,82,0.0,-999.0,9,-99.99,,,0.00,0.0,meteohub,2013-08-19 07:57:00,
2013-08-19 04:02:00,84.6,16.9,-100.00,East,82,0.0,-999.0,8,-99.99,,,0.00,0.0,meteohub,2013-08-19 08:02:00,
2013-08-19 04:07:00,84.7,16.9,-100.00,East,86,0.0,-999.0,8,-99.99,,,0.00,0.0,meteohub,2013-08-19 08:07:00,
2013-08-19 04:12:00,84.6,16.9,-100.00,East,86,0.0,-999.0,8,-99.99,,,0.00,0.0,meteohub,2013-08-19 08:12:00,
2013-08-19 04:17:00,84.6,16.9,-100.00,East,87,0.0,-999.0,8,-99.99,,,0.00,0.0,meteohub,2013-08-19 08:17:00,
2013-08-19 04:22:00,84.6,16.9,-100.00,SE,126,0.0,-999.0,8,-99.99,,,0.00,0.0,meteohub,2013-08-19 08:22:00,
2013-08-19 04:27:00,84.6,16.9,-100.00,SE,126,0.0,-999.0,8,-99.99,,,0.00,0.0,meteohub,2013-08-19 08:27:00,
2013-08-19 04:32:00,84.6,16.9,-100.00,SSE,166,0.0,-999.0,8,-99.99,,,0.00,0.0,meteohub,2013-08-19 08:32:00,
2013-08-19 04:37:00,84.4,19.4,-100.00,ENE,77,1.0,-999.0,9,-99.99,,,0.00,0.0,meteohub,2013-08-19 08:37:00,
2013-08-19 04:42:00,84.4,19.4,-100.00,SSW,212,4.0,-999.0,9,-99.99,,,0.00,0.0,meteohub,2013-08-19 08:42:00,
2013-08-19 04:47:00,84.4,19.4,-100.00,SE,144,5.0,-999.0,9,-99.99,,,0.00,0.0,meteohub,2013-08-19 08:47:00,
2013-08-19 04:52:00,84.2,19.2,-100.00,East,82,0.0,-999.0,9,-99.99,,,0.00,0.0,meteohub,2013-08-19 08:52:00,
2013-08-19 04:57:00,84.0,19.0,-100.00,WNW,286,0.0,-999.0,9,-99.99,,,0.00,0.0,meteohub,2013-08-19 08:57:00,
2013-08-19 05:02:00,83.8,19.0,-100.00,SSE,164,3.0,-999.0,9,-99.99,,,0.00,0.0,meteohub,2013-08-19 09:02:00,
2013-08-19 05:07:00,83.8,19.0,-100.00,SE,134,5.0,-999.0,9,-99.99,,,0.00,0.0,meteohub,2013-08-19 09:07:00,
2013-08-19 05:12:00,84.0,19.0,-100.00,South,180,3.0,-999.0,9,-99.99,,,0.00,0.0,meteohub,2013-08-19 09:12:00,
2013-08-19 05:17:00,83.8,19.0,-100.00,SSE,155,0.0,-999.0,9,-99.99,,,0.00,0.0,meteohub,2013-08-19 09:17:00,
2013-08-19 05:22:00,83.8,19.0,-100.00,SSE,163,3.0,-999.0,9,-99.99,,,0.00,0.0,meteohub,2013-08-19 09:22:00,
2013-08-19 05:27:00,84.0,19.0,-100.00,South,169,0.0,-999.0,9,-99.99,,,0.00,0.0,meteohub,2013-08-19 09:27:00,
2013-08-19 05:32:00,84.2,19.2,-100.00,SE,132,0.0,-999.0,9,-99.99,,,0.00,0.0,meteohub,2013-08-19 09:32:00,
2013-08-19 05:37:00,84.4,19.4,-100.00,SE,138,6.0,-999.0,9,-99.99,,,0.00,0.0,meteohub,2013-08-19 09:37:00,
2013-08-19 05:42:00,84.6,21.9,-100.00,SSW,196,6.0,-999.0,10,-99.99,,,0.00,0.0,meteohub,2013-08-19 09:42:00,
2013-08-19 05:47:00,84.7,22.1,-100.00,SSE,164,3.0,-999.0,10,-99.99,,,0.00,0.0,meteohub,2013-08-19 09:47:00,
2013-08-19 05:52:00,84.7,22.1,-100.00,SSE,154,0.0,-999.0,10,-99.99,,,0.00,0.0,meteohub,2013-08-19 09:52:00,
2013-08-19 05:57:00,84.7,19.6,-100.00,SE,140,1.0,-999.0,9,-99.99,,,0.00,0.0,meteohub,2013-08-19 09:57:00,
2013-08-19 06:02:00,84.7,19.6,-100.00,South,186,3.0,-999.0,9,-99.99,,,0.00,0.0,meteohub,2013-08-19 10:02:00,
2013-08-19 06:07:00,84.7,19.6,-100.00,South,184,5.0,-999.0,9,-99.99,,,0.00,0.0,meteohub,2013-08-19 10:07:00,
2013-08-19 06:12:00,84.7,19.6,-100.00,SE,136,0.0,-999.0,9,-99.99,,,0.00,0.0,meteohub,2013-08-19 10:12:00,
2013-08-19 06:17:00,84.7,19.6,-100.00,SE,129,1.0,-999.0,9,-99.99,,,0.00,0.0,meteohub,2013-08-19 10:17:00,
2013-08-19 06:22:00,84.7,19.6,-100.00,South,181,4.0,-999.0,9,-99.99,,,0.00,0.0,meteohub,2013-08-19 10:22:00,
2013-08-19 06:27:00,84.7,19.6,-100.00,SSW,209,5.0,-999.0,9,-99.99,,,0.00,0.0,meteohub,2013-08-19 10:27:00,
2013-08-19 06:32:00,84.7,19.6,-100.00,SSE,153,6.0,-999.0,9,-99.99,,,0.00,0.0,meteohub,2013-08-19 10:32:00,
2013-08-19 06:37:00,84.7,19.6,-100.00,SSW,192,3.0,-999.0,9,-99.99,,,0.00,0.0,meteohub,2013-08-19 10:37:00,
2013-08-19 06:42:00,84.9,19.8,-100.00,South,170,3.0,-999.0,9,-99.99,,,0.00,0.0,meteohub,2013-08-19 10:42:00,
2013-08-19 06:47:00,84.9,19.8,-100.00,East,98,5.0,-999.0,9,-99.99,,,0.00,0.0,meteohub,2013-08-19 10:47:00,
2013-08-19 06:52:00,84.7,19.6,-100.00,SSW,194,11.0,-999.0,9,-99.99,,,0.00,0.0,meteohub,2013-08-19 10:52:00,
2013-08-19 06:57:00,84.7,19.6,-100.00,ESE,117,7.0,-999.0,9,-99.99,,,0.00,5.0,meteohub,2013-08-19 10:57:00,
2013-08-19 07:02:00,85.1,22.5,-100.00,South,180,1.0,-999.0,10,-99.99,,,0.00,9.0,meteohub,2013-08-19 11:02:00,
2013-08-19 07:07:00,84.9,22.3,-100.00,SSE,164,7.0,-999.0,10,-99.99,,,0.00,12.0,meteohub,2013-08-19 11:07:00,
2013-08-19 07:12:00,84.9,19.8,-100.00,South,184,6.0,-999.0,9,-99.99,,,0.00,19.0,meteohub,2013-08-19 11:12:00,
2013-08-19 07:17:00,84.9,19.8,-100.00,SE,146,5.0,-999.0,9,-99.99,,,0.00,30.0,meteohub,2013-08-19 11:17:00,
2013-08-19 07:22:00,85.5,20.1,-100.00,South,186,10.0,-999.0,9,-99.99,,,0.00,26.0,meteohub,2013-08-19 11:22:00,
2013-08-19 07:27:00,85.3,20.1,-100.00,South,176,4.0,-999.0,9,-99.99,,,0.00,37.0,meteohub,2013-08-19 11:27:00,
2013-08-19 07:32:00,85.3,22.6,-100.00,SE,144,4.0,-999.0,10,-99.99,,,0.00,47.0,meteohub,2013-08-19 11:32:00,
2013-08-19 07:37:00,85.3,22.6,-100.00,SSW,205,5.0,-999.0,10,-99.99,,,0.00,47.0,meteohub,2013-08-19 11:37:00,
2013-08-19 07:42:00,85.5,22.6,-100.00,ESE,123,0.0,-999.0,10,-99.99,,,0.00,39.0,meteohub,2013-08-19 11:42:00,
2013-08-19 07:52:00,85.8,23.0,-100.00,SE,141,3.0,-999.0,10,-99.99,,,0.00,197.0,meteohub,2013-08-19 11:52:00,
2013-08-19 07:57:00,86.2,25.5,-100.00,South,187,7.0,-999.0,11,-99.99,,,0.00,100.0,meteohub,2013-08-19 11:57:00,
2013-08-19 08:02:00,86.4,25.7,-100.00,SE,136,4.0,-999.0,11,-99.99,,,0.00,243.0,meteohub,2013-08-19 12:02:00,
2013-08-19 08:12:00,86.7,28.0,-100.00,SE,133,6.0,-999.0,12,-99.99,,,0.00,227.0,meteohub,2013-08-19 12:12:00,
2013-08-19 08:17:00,86.9,30.2,-100.00,South,182,6.0,-999.0,13,-99.99,,,0.00,264.0,meteohub,2013-08-19 12:17:00,
2013-08-19 08:22:00,87.1,33.8,-100.00,SSW,198,4.0,-999.0,15,-99.99,,,0.00,287.0,meteohub,2013-08-19 12:22:00,
2013-08-19 08:27:00,86.7,35.2,-100.00,SSE,150,5.0,-999.0,16,-99.99,,,0.00,93.0,meteohub,2013-08-19 12:27:00,
2013-08-19 08:32:00,86.9,33.6,-100.00,SW,227,6.0,-999.0,15,-99.99,,,0.00,345.0,meteohub,2013-08-19 12:32:00,
2013-08-19 08:37:00,87.1,33.8,-100.00,SE,142,7.0,-999.0,15,-99.99,,,0.00,121.0,meteohub,2013-08-19 12:37:00,
2013-08-19 08:42:00,87.3,35.6,-100.00,WSW,237,4.0,-999.0,16,-99.99,,,0.00,385.0,meteohub,2013-08-19 12:42:00,
2013-08-19 08:47:00,87.4,38.7,-100.00,SSE,148,7.0,-999.0,18,-99.99,,,0.00,403.0,meteohub,2013-08-19 12:47:00,
2013-08-19 08:52:00,87.4,38.7,-100.00,SE,146,3.0,-999.0,18,-99.99,,,0.00,172.0,meteohub,2013-08-19 12:52:00,
2013-08-19 08:57:00,87.6,37.4,-100.00,SSE,166,6.0,-999.0,17,-99.99,,,0.00,468.0,meteohub,2013-08-19 12:57:00,
2013-08-19 09:02:00,87.6,40.3,-100.00,SE,146,5.0,-999.0,19,-99.99,,,0.00,153.0,meteohub,2013-08-19 13:02:00,
2013-08-19 09:07:00,87.3,38.7,-100.00,SSE,168,3.0,-999.0,18,-99.99,,,0.00,128.0,meteohub,2013-08-19 13:07:00,
2013-08-19 09:12:00,87.6,34.3,-100.00,SE,133,6.0,-999.0,15,-99.99,,,0.00,172.0,meteohub,2013-08-19 13:12:00,
2013-08-19 09:17:00,88.0,36.1,-100.00,SSE,148,11.0,-999.0,16,-99.99,,,0.00,557.0,meteohub,2013-08-19 13:17:00,
2013-08-19 09:22:00,88.0,37.8,-100.00,SSW,206,6.0,-999.0,17,-99.99,,,0.00,181.0,meteohub,2013-08-19 13:22:00,
2013-08-19 09:27:00,88.0,34.5,-100.00,SE,134,4.0,-999.0,15,-99.99,,,0.00,306.0,meteohub,2013-08-19 13:27:00,
2013-08-19 09:32:00,88.3,37.9,-100.00,ESE,123,9.0,-999.0,17,-99.99,,,0.00,571.0,meteohub,2013-08-19 13:32:00,
2013-08-19 09:37:00,88.3,45.9,-100.00,South,178,6.0,-999.0,23,-99.99,,,0.00,563.0,meteohub,2013-08-19 13:37:00,
2013-08-19 09:42:00,88.5,43.5,-100.00,SSE,155,5.0,-999.0,21,-99.99,,,0.00,561.0,meteohub,2013-08-19 13:42:00,
2013-08-19 09:47:00,88.3,44.6,-100.00,SE,134,9.0,-999.0,22,-99.99,,,0.00,592.0,meteohub,2013-08-19 13:47:00,
2013-08-19 09:52:00,88.7,43.7,-100.00,WSW,237,2.0,-999.0,21,-99.99,,,0.00,606.0,meteohub,2013-08-19 13:52:00,
2013-08-19 09:57:00,88.0,51.8,-100.00,SSE,164,7.0,-999.0,29,-99.99,,,0.00,582.0,meteohub,2013-08-19 13:57:00,
2013-08-19 10:02:00,88.5,48.2,-100.00,SSW,209,5.0,-999.0,25,-99.99,,,0.00,671.0,meteohub,2013-08-19 14:02:00,
2013-08-19 10:07:00,89.1,51.8,-100.00,SSW,200,12.0,-999.0,28,-99.99,,,0.00,714.0,meteohub,2013-08-19 14:07:00,
2013-08-19 10:12:00,89.1,52.7,-100.00,SSW,205,3.0,-999.0,29,-99.99,,,0.00,737.0,meteohub,2013-08-19 14:12:00,
2013-08-19 10:17:00,89.1,50.7,-100.00,SSW,203,11.0,-999.0,27,-99.99,,,0.00,269.0,meteohub,2013-08-19 14:17:00,
2013-08-19 10:27:00,88.3,53.1,-100.00,SSW,197,7.0,-999.0,30,-99.99,,,0.00,742.0,meteohub,2013-08-19 14:27:00,
2013-08-19 10:32:00,88.3,51.1,-100.00,SSW,197,6.0,-999.0,28,-99.99,,,0.00,759.0,meteohub,2013-08-19 14:32:00,
2013-08-19 10:37:00,88.7,51.4,-100.00,South,191,4.0,-999.0,28,-99.99,,,0.00,759.0,meteohub,2013-08-19 14:37:00,
2013-08-19 10:42:00,88.7,51.4,-100.00,SSE,150,11.0,-999.0,28,-99.99,,,0.00,810.0,meteohub,2013-08-19 14:42:00,
2013-08-19 10:47:00,88.5,49.3,-100.00,SW,215,2.0,-999.0,26,-99.99,,,0.00,765.0,meteohub,2013-08-19 14:47:00,
2013-08-19 10:57:00,88.5,55.8,-100.00,SSW,192,6.0,-999.0,33,-99.99,,,0.00,791.0,meteohub,2013-08-19 14:57:00,
2013-08-19 11:02:00,88.9,56.1,-100.00,SE,138,5.0,-999.0,33,-99.99,,,0.00,838.0,meteohub,2013-08-19 15:02:00,
2013-08-19 11:07:00,88.9,54.3,-100.00,SSW,204,5.0,-999.0,31,-99.99,,,0.00,840.0,meteohub,2013-08-19 15:07:00,
2013-08-19 11:12:00,88.9,55.2,-100.00,South,185,5.0,-999.0,32,-99.99,,,0.00,872.0,meteohub,2013-08-19 15:12:00,
2013-08-19 11:17:00,88.9,60.8,-100.00,SSE,156,9.0,-999.0,39,-99.99,,,0.00,874.0,meteohub,2013-08-19 15:17:00,
2013-08-19 11:22:00,88.5,59.0,-100.00,SE,140,10.0,-999.0,37,-99.99,,,0.00,911.0,meteohub,2013-08-19 15:22:00,
2013-08-19 11:32:00,88.9,61.5,-100.00,SE,128,6.0,-999.0,40,-99.99,,,0.00,888.0,meteohub,2013-08-19 15:32:00,
2013-08-19 11:37:00,88.9,61.5,-100.00,SSW,213,5.0,-999.0,40,-99.99,,,0.00,877.0,meteohub,2013-08-19 15:37:00,
2013-08-19 11:42:00,89.2,60.3,-100.00,SE,134,7.0,-999.0,38,-99.99,,,0.00,889.0,meteohub,2013-08-19 15:42:00,
2013-08-19 11:47:00,88.5,59.0,-100.00,SSW,197,7.0,-999.0,37,-99.99,,,0.00,886.0,meteohub,2013-08-19 15:47:00,
2013-08-19 11:52:00,88.9,58.5,-100.00,South,171,4.0,-999.0,36,-99.99,,,0.00,963.0,meteohub,2013-08-19 15:52:00,
2013-08-19 11:57:00,89.1,60.1,-100.00,SE,144,5.0,-999.0,38,-99.99,,,0.00,918.0,meteohub,2013-08-19 15:57:00,
2013-08-19 12:02:00,89.1,59.4,-100.00,SSW,206,8.0,-999.0,37,-99.99,,,0.00,918.0,meteohub,2013-08-19 16:02:00,
2013-08-19 12:07:00,88.9,60.8,-100.00,SSW,200,9.0,-999.0,39,-99.99,,,0.00,921.0,meteohub,2013-08-19 16:07:00,
2013-08-19 12:12:00,88.9,60.8,-100.00,South,176,7.0,-999.0,39,-99.99,,,0.00,926.0,meteohub,2013-08-19 16:12:00,
2013-08-19 12:17:00,89.4,63.3,-100.00,ESE,116,7.0,-999.0,42,-99.99,,,0.00,953.0,meteohub,2013-08-19 16:17:00,
2013-08-19 12:22:00,88.7,59.9,-100.00,South,180,9.0,-999.0,38,-99.99,,,0.00,939.0,meteohub,2013-08-19 16:22:00,
2013-08-19 12:27:00,88.2,54.5,-100.00,SSE,151,7.0,-999.0,32,-99.99,,,0.00,969.0,meteohub,2013-08-19 16:27:00,
2013-08-19 12:32:00,88.5,55.8,-100.00,SSE,161,10.0,-999.0,33,-99.99,,,0.00,949.0,meteohub,2013-08-19 16:32:00,
2013-08-19 12:42:00,88.9,56.8,-100.00,South,177,4.0,-999.0,34,-99.99,,,0.00,1085.0,meteohub,2013-08-19 16:42:00,
2013-08-19 12:47:00,89.2,57.9,-100.00,South,190,7.0,-999.0,35,-99.99,,,0.00,1062.0,meteohub,2013-08-19 16:47:00,
2013-08-19 12:52:00,89.4,59.0,-100.00,SSE,165,10.0,-999.0,36,-99.99,,,0.00,977.0,meteohub,2013-08-19 16:52:00,
2013-08-19 12:57:00,89.1,57.0,-100.00,SSW,212,9.0,-999.0,34,-99.99,,,0.00,1034.0,meteohub,2013-08-19 16:57:00,
2013-08-19 13:02:00,89.1,58.6,-100.00,SE,142,12.0,-999.0,36,-99.99,,,0.00,972.0,meteohub,2013-08-19 17:02:00,
2013-08-19 13:07:00,88.5,57.4,-100.00,SSW,199,7.0,-999.0,35,-99.99,,,0.00,974.0,meteohub,2013-08-19 17:07:00,
2013-08-19 13:12:00,89.2,57.9,-100.00,SSW,205,5.0,-999.0,35,-99.99,,,0.00,976.0,meteohub,2013-08-19 17:12:00,
2013-08-19 13:17:00,89.4,61.2,-100.00,SE,127,7.0,-999.0,39,-99.99,,,0.00,974.0,meteohub,2013-08-19 17:17:00,
2013-08-19 13:22:00,88.9,58.5,-100.00,SSW,192,7.0,-999.0,36,-99.99,,,0.00,986.0,meteohub,2013-08-19 17:22:00,
2013-08-19 13:27:00,89.1,59.4,-100.00,SSW,194,9.0,-999.0,37,-99.99,,,0.00,988.0,meteohub,2013-08-19 17:27:00,
2013-08-19 13:32:00,89.1,56.3,-100.00,SSE,152,6.0,-999.0,33,-99.99,,,0.00,981.0,meteohub,2013-08-19 17:32:00,
2013-08-19 13:37:00,89.1,57.0,-100.00,SSW,200,9.0,-999.0,34,-99.99,,,0.00,981.0,meteohub,2013-08-19 17:37:00,
2013-08-19 13:42:00,89.2,60.3,-100.00,SE,142,9.0,-999.0,38,-99.99,,,0.00,970.0,meteohub,2013-08-19 17:42:00,
2013-08-19 13:47:00,89.2,58.8,-100.00,SSW,202,10.0,-999.0,36,-99.99,,,0.00,981.0,meteohub,2013-08-19 17:47:00,
2013-08-19 13:52:00,89.8,60.8,-100.00,South,177,3.0,-999.0,38,-99.99,,,0.00,963.0,meteohub,2013-08-19 17:52:00,
2013-08-19 13:57:00,89.2,57.9,-100.00,ESE,108,2.0,-999.0,35,-99.99,,,0.00,954.0,meteohub,2013-08-19 17:57:00,
2013-08-19 14:02:00,89.4,60.4,-100.00,SW,214,9.0,-999.0,38,-99.99,,,0.00,953.0,meteohub,2013-08-19 18:02:00,
2013-08-19 14:07:00,89.4,58.1,-100.00,SSW,202,5.0,-999.0,35,-99.99,,,0.00,972.0,meteohub,2013-08-19 18:07:00,
2013-08-19 14:12:00,89.8,59.2,-100.00,South,169,5.0,-999.0,36,-99.99,,,0.00,962.0,meteohub,2013-08-19 18:12:00,
2013-08-19 14:17:00,89.8,58.5,-100.00,South,186,9.0,-999.0,35,-99.99,,,0.00,997.0,meteohub,2013-08-19 18:17:00,
2013-08-19 14:22:00,89.2,53.8,-100.00,ESE,109,5.0,-999.0,30,-99.99,,,0.00,983.0,meteohub,2013-08-19 18:22:00,
2013-08-19 14:27:00,89.8,57.7,-100.00,SE,136,7.0,-999.0,34,-99.99,,,0.00,977.0,meteohub,2013-08-19 18:27:00,
2013-08-19 14:32:00,89.1,54.5,-100.00,ESE,121,11.0,-999.0,31,-99.99,,,0.00,1032.0,meteohub,2013-08-19 18:32:00,
2013-08-19 14:37:00,89.4,57.4,-100.00,SE,127,9.0,-999.0,34,-99.99,,,0.00,997.0,meteohub,2013-08-19 18:37:00,
2013-08-19 14:42:00,89.8,60.1,-100.00,SSE,163,9.0,-999.0,37,-99.99,,,0.00,928.0,meteohub,2013-08-19 18:42:00,
2013-08-19 14:47:00,88.9,57.7,-100.00,South,175,4.0,-999.0,35,-99.99,,,0.00,921.0,meteohub,2013-08-19 18:47:00,
2013-08-19 14:52:00,88.9,56.8,-100.00,SSE,148,7.0,-999.0,34,-99.99,,,0.00,916.0,meteohub,2013-08-19 18:52:00,
2013-08-19 14:57:00,89.2,61.0,-100.00,ESE,117,10.0,-999.0,39,-99.99,,,0.00,888.0,meteohub,2013-08-19 18:57:00,
2013-08-19 15:02:00,89.2,60.3,-100.00,South,185,5.0,-999.0,38,-99.99,,,0.00,874.0,meteohub,2013-08-19 19:02:00,
2013-08-19 15:07:00,89.1,60.1,-100.00,SSE,150,3.0,-999.0,38,-99.99,,,0.00,895.0,meteohub,2013-08-19 19:07:00,
2013-08-19 15:12:00,89.4,61.2,-100.00,South,181,6.0,-999.0,39,-99.99,,,0.00,858.0,meteohub,2013-08-19 19:12:00,
2013-08-19 15:17:00,89.6,63.5,-100.00,South,184,6.0,-999.0,42,-99.99,,,0.00,842.0,meteohub,2013-08-19 19:17:00,
2013-08-19 15:22:00,89.1,58.6,-100.00,South,172,6.0,-999.0,36,-99.99,,,0.00,833.0,meteohub,2013-08-19 19:22:00,
2013-08-19 15:27:00,89.6,59.9,-100.00,SSW,203,7.0,-999.0,37,-99.99,,,0.00,863.0,meteohub,2013-08-19 19:27:00,
2013-08-19 15:32:00,89.4,59.7,-100.00,SSW,196,9.0,-999.0,37,-99.99,,,0.00,830.0,meteohub,2013-08-19 19:32:00,
2013-08-19 15:37:00,89.1,56.3,-100.00,SSE,149,8.0,-999.0,33,-99.99,,,0.00,817.0,meteohub,2013-08-19 19:37:00,
2013-08-19 15:42:00,89.8,59.2,-100.00,South,178,7.0,-999.0,36,-99.99,,,0.00,793.0,meteohub,2013-08-19 19:42:00,
2013-08-19 15:47:00,89.8,61.5,-100.00,SSE,153,6.0,-999.0,39,-99.99,,,0.00,831.0,meteohub,2013-08-19 19:47:00,
2013-08-19 15:52:00,89.2,58.8,-100.00,SSW,192,10.0,-999.0,36,-99.99,,,0.00,828.0,meteohub,2013-08-19 19:52:00,
2013-08-19 15:57:00,89.2,61.0,-100.00,SE,134,6.0,-999.0,39,-99.99,,,0.00,779.0,meteohub,2013-08-19 19:57:00,
2013-08-19 16:02:00,89.2,57.9,-100.00,SSE,152,6.0,-999.0,35,-99.99,,,0.00,779.0,meteohub,2013-08-19 20:02:00,
2013-08-19 16:07:00,89.2,58.8,-100.00,South,171,4.0,-999.0,36,-99.99,,,0.00,742.0,meteohub,2013-08-19 20:07:00,
2013-08-19 16:12:00,89.2,61.0,-100.00,SSE,148,11.0,-999.0,39,-99.99,,,0.00,717.0,meteohub,2013-08-19 20:12:00,
2013-08-19 16:17:00,88.3,55.6,-100.00,South,191,7.0,-999.0,33,-99.99,,,0.00,710.0,meteohub,2013-08-19 20:17:00,
2013-08-19 16:22:00,87.6,50.5,-100.00,South,181,9.0,-999.0,28,-99.99,,,0.00,691.0,meteohub,2013-08-19 20:22:00,
2013-08-19 16:27:00,88.2,54.5,-100.00,South,188,7.0,-999.0,32,-99.99,,,0.00,668.0,meteohub,2013-08-19 20:27:00,
2013-08-19 16:32:00,88.9,57.7,-100.00,SSW,196,7.0,-999.0,35,-99.99,,,0.00,647.0,meteohub,2013-08-19 20:32:00,
2013-08-19 16:37:00,89.1,64.9,-100.00,SSW,198,6.0,-999.0,45,-99.99,,,0.00,628.0,meteohub,2013-08-19 20:37:00,
2013-08-19 16:42:00,88.2,57.9,-100.00,SSE,161,2.0,-999.0,36,-99.99,,,0.00,621.0,meteohub,2013-08-19 20:42:00,
2013-08-19 16:47:00,88.5,57.4,-100.00,SE,140,10.0,-999.0,35,-99.99,,,0.00,612.0,meteohub,2013-08-19 20:47:00,
2013-08-19 16:52:00,88.3,58.8,-100.00,SSE,167,5.0,-999.0,37,-99.99,,,0.00,589.0,meteohub,2013-08-19 20:52:00,
2013-08-19 16:57:00,88.3,55.6,-100.00,South,182,5.0,-999.0,33,-99.99,,,0.00,584.0,meteohub,2013-08-19 20:57:00,
2013-08-19 17:02:00,88.3,52.0,-100.00,SSE,162,5.0,-999.0,29,-99.99,,,0.00,153.0,meteohub,2013-08-19 21:02:00,
2013-08-19 17:07:00,87.4,51.3,-100.00,SE,142,4.0,-999.0,29,-99.99,,,0.00,559.0,meteohub,2013-08-19 21:07:00,
2013-08-19 17:12:00,88.0,49.8,-100.00,South,190,5.0,-999.0,27,-99.99,,,0.00,585.0,meteohub,2013-08-19 21:12:00,
2013-08-19 17:17:00,88.2,52.0,-100.00,South,175,5.0,-999.0,29,-99.99,,,0.00,211.0,meteohub,2013-08-19 21:17:00,
2013-08-19 17:22:00,88.2,52.0,-100.00,SE,144,5.0,-999.0,29,-99.99,,,0.00,508.0,meteohub,2013-08-19 21:22:00,
2013-08-19 17:32:00,87.8,51.6,-100.00,SE,142,4.0,-999.0,29,-99.99,,,0.00,452.0,meteohub,2013-08-19 21:32:00,
2013-08-19 17:37:00,87.3,50.2,-100.00,SSE,148,6.0,-999.0,28,-99.99,,,0.00,436.0,meteohub,2013-08-19 21:37:00,
2013-08-19 17:42:00,87.1,48.0,-100.00,SE,146,5.0,-999.0,26,-99.99,,,0.00,411.0,meteohub,2013-08-19 21:42:00,
2013-08-19 17:47:00,87.1,48.0,-100.00,South,186,5.0,-999.0,26,-99.99,,,0.00,79.0,meteohub,2013-08-19 21:47:00,
2013-08-19 17:52:00,87.1,50.9,-100.00,SE,131,7.0,-999.0,29,-99.99,,,0.00,369.0,meteohub,2013-08-19 21:52:00,
2013-08-19 17:57:00,86.9,48.9,-100.00,SE,131,6.0,-999.0,27,-99.99,,,0.00,353.0,meteohub,2013-08-19 21:57:00,
2013-08-19 18:02:00,87.1,45.9,-100.00,SSW,202,2.0,-999.0,24,-99.99,,,0.00,299.0,meteohub,2013-08-19 22:02:00,
2013-08-19 18:07:00,87.1,45.9,-100.00,South,172,3.0,-999.0,24,-99.99,,,0.00,322.0,meteohub,2013-08-19 22:07:00,
2013-08-19 18:12:00,87.1,46.9,-100.00,South,174,4.0,-999.0,25,-99.99,,,0.00,299.0,meteohub,2013-08-19 22:12:00,
2013-08-19 18:17:00,86.9,46.8,-100.00,SSW,209,5.0,-999.0,25,-99.99,,,0.00,283.0,meteohub,2013-08-19 22:17:00,
2013-08-19 18:27:00,86.5,44.4,-100.00,SSE,161,9.0,-999.0,23,-99.99,,,0.00,125.0,meteohub,2013-08-19 22:27:00,
2013-08-19 18:32:00,86.5,46.6,-100.00,SSW,207,2.0,-999.0,25,-99.99,,,0.00,53.0,meteohub,2013-08-19 22:32:00,
2013-08-19 18:37:00,86.2,46.2,-100.00,SSE,168,1.0,-999.0,25,-99.99,,,0.00,54.0,meteohub,2013-08-19 22:37:00,
2013-08-19 18:42:00,86.0,45.0,-100.00,SE,140,4.0,-999.0,24,-99.99,,,0.00,174.0,meteohub,2013-08-19 22:42:00,
2013-08-19 18:47:00,85.8,45.9,-100.00,South,183,6.0,-999.0,25,-99.99,,,0.00,77.0,meteohub,2013-08-19 22:47:00,
2013-08-19 18:52:00,85.8,48.0,-100.00,South,171,3.0,-999.0,27,-99.99,,,0.00,130.0,meteohub,2013-08-19 22:52:00,
2013-08-19 18:57:00,85.8,46.9,-100.00,SE,127,4.0,-999.0,26,-99.99,,,0.00,111.0,meteohub,2013-08-19 22:57:00,
2013-08-19 19:02:00,86.0,45.0,-100.00,SE,145,4.0,-999.0,24,-99.99,,,0.00,97.0,meteohub,2013-08-19 23:02:00,
2013-08-19 19:07:00,85.8,45.9,-100.00,South,177,4.0,-999.0,25,-99.99,,,0.00,76.0,meteohub,2013-08-19 23:07:00,
2013-08-19 19:12:00,85.5,45.7,-100.00,SSE,148,7.0,-999.0,25,-99.99,,,0.00,62.0,meteohub,2013-08-19 23:12:00,
2013-08-19 19:17:00,85.5,43.5,-100.00,South,175,3.0,-999.0,23,-99.99,,,0.00,51.0,meteohub,2013-08-19 23:17:00,
2013-08-19 19:22:00,85.6,43.5,-100.00,ESE,123,3.0,-999.0,23,-99.99,,,0.00,37.0,meteohub,2013-08-19 23:22:00,
2013-08-19 19:27:00,85.6,43.5,-100.00,SSE,148,2.0,-999.0,23,-99.99,,,0.00,28.0,meteohub,2013-08-19 23:27:00,
2013-08-19 19:37:00,85.5,39.7,-100.00,SSE,155,0.0,-999.0,20,-99.99,,,0.00,9.0,meteohub,2013-08-19 23:37:00,
2013-08-19 19:42:00,85.6,39.9,-100.00,SSE,157,1.0,-999.0,20,-99.99,,,0.00,5.0,meteohub,2013-08-19 23:42:00,
2013-08-19 19:47:00,85.6,38.7,-100.00,South,175,2.0,-999.0,19,-99.99,,,0.00,0.0,meteohub,2013-08-19 23:47:00,
2013-08-19 19:52:00,85.8,38.8,-100.00,South,169,0.0,-999.0,19,-99.99,,,0.00,0.0,meteohub,2013-08-19 23:52:00,
2013-08-19 19:57:00,85.8,37.4,-100.00,South,173,0.0,-999.0,18,-99.99,,,0.00,0.0,meteohub,2013-08-19 23:57:00,
2013-08-19 20:02:00,86.0,36.1,-100.00,South,178,1.0,-999.0,17,-99.99,,,0.00,0.0,meteohub,2013-08-20 00:02:00,
2013-08-19 20:07:00,85.8,38.8,-100.00,SSE,161,4.0,-999.0,19,-99.99,,,0.00,0.0,meteohub,2013-08-20 00:07:00,
2013-08-19 20:12:00,85.6,38.7,-100.00,South,184,5.0,-999.0,19,-99.99,,,0.00,0.0,meteohub,2013-08-20 00:12:00,
2013-08-19 20:17:00,85.5,39.7,-100.00,SE,144,4.0,-999.0,20,-99.99,,,0.00,0.0,meteohub,2013-08-20 00:17:00,
2013-08-19 20:22:00,85.3,39.7,-100.00,SSE,151,0.0,-999.0,20,-99.99,,,0.00,0.0,meteohub,2013-08-20 00:22:00,
2013-08-19 20:27:00,85.3,41.0,-100.00,SSE,159,0.0,-999.0,21,-99.99,,,0.00,0.0,meteohub,2013-08-20 00:27:00,
2013-08-19 20:32:00,85.5,41.0,-100.00,South,182,3.0,-999.0,21,-99.99,,,0.00,0.0,meteohub,2013-08-20 00:32:00,
2013-08-19 20:37:00,85.3,43.3,-100.00,SSE,167,1.0,-999.0,23,-99.99,,,0.00,0.0,meteohub,2013-08-20 00:37:00,
2013-08-19 20:42:00,85.3,39.7,-100.00,SSE,157,0.0,-999.0,20,-99.99,,,0.00,0.0,meteohub,2013-08-20 00:42:00,
2013-08-19 20:47:00,85.5,38.5,-100.00,SSE,158,0.0,-999.0,19,-99.99,,,0.00,0.0,meteohub,2013-08-20 00:47:00,
2013-08-19 20:52:00,85.6,38.7,-100.00,SSE,155,0.0,-999.0,19,-99.99,,,0.00,0.0,meteohub,2013-08-20 00:52:00,
2013-08-19 20:57:00,85.6,37.2,-100.00,SSE,153,1.0,-999.0,18,-99.99,,,0.00,0.0,meteohub,2013-08-20 00:57:00,
2013-08-19 21:02:00,85.5,37.0,-100.00,SSE,153,0.0,-999.0,18,-99.99,,,0.00,0.0,meteohub,2013-08-20 01:02:00,
2013-08-19 21:07:00,85.6,35.8,-100.00,SSE,153,0.0,-999.0,17,-99.99,,,0.00,0.0,meteohub,2013-08-20 01:07:00,
2013-08-19 21:12:00,85.6,37.2,-100.00,SSE,157,0.0,-999.0,18,-99.99,,,0.00,0.0,meteohub,2013-08-20 01:12:00,
2013-08-19 21:17:00,85.5,37.0,-100.00,SSE,160,2.0,-999.0,18,-99.99,,,0.00,0.0,meteohub,2013-08-20 01:17:00,
2013-08-19 21:22:00,85.5,35.6,-100.00,SSE,160,0.0,-999.0,17,-99.99,,,0.00,0.0,meteohub,2013-08-20 01:22:00,
2013-08-19 21:27:00,85.6,35.8,-100.00,SSE,161,0.0,-999.0,17,-99.99,,,0.00,0.0,meteohub,2013-08-20 01:27:00,
2013-08-19 21:32:00,85.6,35.8,-100.00,SSE,155,0.0,-999.0,17,-99.99,,,0.00,0.0,meteohub,2013-08-20 01:32:00,
2013-08-19 21:37:00,85.6,34.3,-100.00,SSE,154,0.0,-999.0,16,-99.99,,,0.00,0.0,meteohub,2013-08-20 01:37:00,
2013-08-19 21:42:00,85.6,32.7,-100.00,SSE,148,0.0,-999.0,15,-99.99,,,0.00,0.0,meteohub,2013-08-20 01:42:00,
2013-08-19 21:47:00,85.6,30.9,-100.00,SSE,153,0.0,-999.0,14,-99.99,,,0.00,0.0,meteohub,2013-08-20 01:47:00,
2013-08-19 21:52:00,85.6,32.7,-100.00,SSE,150,0.0,-999.0,15,-99.99,,,0.00,0.0,meteohub,2013-08-20 01:52:00,
2013-08-19 21:57:00,85.6,30.9,-100.00,SSE,151,0.0,-999.0,14,-99.99,,,0.00,0.0,meteohub,2013-08-20 01:57:00,
2013-08-19 22:02:00,85.6,29.1,-100.00,SSE,151,0.0,-999.0,13,-99.99,,,0.00,0.0,meteohub,2013-08-20 02:02:00,
2013-08-19 22:07:00,86.0,27.5,-100.00,SSE,153,0.0,-999.0,12,-99.99,,,0.00,0.0,meteohub,2013-08-20 02:07:00,
2013-08-19 22:12:00,86.0,27.5,-100.00,SSE,152,0.0,-999.0,12,-99.99,,,0.00,0.0,meteohub,2013-08-20 02:12:00,
2013-08-19 22:17:00,85.8,27.3,-100.00,SSE,152,0.0,-999.0,12,-99.99,,,0.00,0.0,meteohub,2013-08-20 02:17:00,
2013-08-19 22:22:00,85.8,27.3,-100.00,SSE,152,0.0,-999.0,12,-99.99,,,0.00,0.0,meteohub,2013-08-20 02:22:00,
2013-08-19 22:27:00,85.8,25.2,-100.00,SSE,152,0.0,-999.0,11,-99.99,,,0.00,0.0,meteohub,2013-08-20 02:27:00,
2013-08-19 22:32:00,85.8,25.2,-100.00,SSE,153,0.0,-999.0,11,-99.99,,,0.00,0.0,meteohub,2013-08-20 02:32:00,
2013-08-19 22:37:00,85.8,27.3,-100.00,SSE,153,0.0,-999.0,12,-99.99,,,0.00,0.0,meteohub,2013-08-20 02:37:00,
2013-08-19 22:42:00,85.8,25.2,-100.00,SSE,153,0.0,-999.0,11,-99.99,,,0.00,0.0,meteohub,2013-08-20 02:42:00,
2013-08-19 22:47:00,85.8,27.3,-100.00,SSE,153,0.0,-999.0,12,-99.99,,,0.00,0.0,meteohub,2013-08-20 02:47:00,
2013-08-19 22:52:00,85.6,27.1,-100.00,SSE,153,0.0,-999.0,12,-99.99,,,0.00,0.0,meteohub,2013-08-20 02:52:00,
2013-08-19 22:57:00,85.6,29.1,-100.00,SSE,154,0.0,-999.0,13,-99.99,,,0.00,0.0,meteohub,2013-08-20 02:57:00,
2013-08-19 23:02:00,85.6,29.1,-100.00,SSE,155,0.0,-999.0,13,-99.99,,,0.00,0.0,meteohub,2013-08-20 03:02:00,
2013-08-19 23:12:00,85.6,32.7,-100.00,SSE,155,3.0,-999.0,15,-99.99,,,0.00,0.0,meteohub,2013-08-20 03:12:00,
2013-08-19 23:17:00,85.6,32.7,-100.00,SSE,155,1.0,-999.0,15,-99.99,,,0.00,0.0,meteohub,2013-08-20 03:17:00,
2013-08-19 23:22:00,85.5,30.9,-100.00,SSE,155,0.0,-999.0,14,-99.99,,,0.00,0.0,meteohub,2013-08-20 03:22:00,
2013-08-19 23:27:00,85.6,30.9,-100.00,SE,129,0.0,-999.0,14,-99.99,,,0.00,0.0,meteohub,2013-08-20 03:27:00,
2013-08-19 23:32:00,85.5,32.5,-100.00,SSE,150,0.0,-999.0,15,-99.99,,,0.00,0.0,meteohub,2013-08-20 03:32:00,
2013-08-19 23:37:00,85.5,32.5,-100.00,SE,137,0.0,-999.0,15,-99.99,,,0.00,0.0,meteohub,2013-08-20 03:37:00,
2013-08-19 23:42:00,85.5,32.5,-100.00,SSE,149,2.0,-999.0,15,-99.99,,,0.00,0.0,meteohub,2013-08-20 03:42:00,
2013-08-19 23:47:00,85.5,35.6,-100.00,SSE,157,1.0,-999.0,17,-99.99,,,0.00,0.0,meteohub,2013-08-20 03:47:00,
2013-08-19 23:52:00,85.3,35.6,-100.00,SSE,152,1.0,-999.0,17,-99.99,,,0.00,0.0,meteohub,2013-08-20 03:52:00,
2013-08-19 23:57:00,85.3,35.6,-100.00,South,173,4.0,-999.0,17,-99.99,,,0.00,0.0,meteohub,2013-08-20 03:57:00,